Flag for U.S.A. Weather past 2 weeks in Concord, California, U.S.A.

Now
84 °F

Sunny.


Feels Like: 83 °F
Forecast: 60 / 83 °F
Wind: 16 mph from Northwest

Location: Buchanan Field

Current Time: Sep 23, 2014 at 4:16:36 PM

Latest Report: Sep 23, 2014 at 3:53 PM


Visibility: 10 mi

Pressure: 29.85 "Hg

Humidity: 40%

Dew point: 57 °F

Location of ConcordLocation

Historic Weather in Concord — Graph

°F

Concord temperature yesterday

Maximum temperature yesterday: 85 °F (at 1:53 PM)
Minimum temperature yesterday: 62 °F (at 2:53 AM)
Average temperature yesterday: 70 °F

Past Weeks' High & Low Weather Summary

 TemperatureHumidityPressure
High97 °F (Sep 11, 4:53 PM)93% (Sep 10, 1:53 AM)30.01 "Hg (Sep 10, 1:53 AM)
Low54 °F (Sep 10, 6:53 AM)11% (Sep 10, 4:53 PM)29.69 "Hg (Sep 17, 4:53 PM)
Average71 °F61%29.83 "Hg
* Reported Sep 8 2:53 PM — Sep 23 2:53 PM, Concord, Weather by CustomWeather, © 2014

Note: Actual official high and low records may vary slightly from our data, if they occured in-between our weather recording intervals... More about our weather records

Advertising

Concord weather history for previous 24 hours

 ConditionsComfort  
Time TempWeatherWind HumidityBarometerVisibility
2:53 PM
Sep 23
84 °FSunny.12 mph35%29.87 "Hg10 mi
1:53 PM82 °FSunny.15 mph40%29.90 "Hg10 mi
12:53 PM80 °FSunny.13 mph47%29.92 "Hg10 mi
11:53 AM77 °FSunny.10 mph48%29.94 "Hg10 mi
10:53 AM72 °FSunny.5 mph57%29.96 "Hg10 mi
9:53 AM69 °FSunny.6 mph66%29.96 "Hg10 mi
8:53 AM66 °FSunny.9 mph73%29.96 "Hg10 mi
7:53 AM62 °FClear.8 mph83%29.95 "Hg10 mi
6:53 AM61 °FClear.8 mph83%29.93 "Hg10 mi
5:53 AM60 °FClear.7 mph86%29.93 "Hg10 mi
4:53 AM60 °FClear.8 mph86%29.91 "Hg10 mi
3:53 AM60 °FClear.8 mph83%29.92 "Hg10 mi
2:53 AM61 °FClear.7 mph81%29.92 "Hg10 mi
1:53 AM62 °FClear.3 mph75%29.93 "Hg10 mi
12:53 AM63 °FClear.6 mph75%29.93 "Hg10 mi
11:53 PM
Sep 22
64 °FClear.3 mph75%29.92 "Hg10 mi
10:53 PM64 °FClear.6 mph78%29.93 "Hg10 mi
9:53 PM66 °FClear.9 mph70%29.91 "Hg10 mi
8:53 PM67 °FClear.8 mph71%29.91 "Hg10 mi
7:53 PM71 °FSunny.8 mph59%29.90 "Hg10 mi
6:53 PM75 °FSunny.10 mph52%29.90 "Hg10 mi
5:53 PM79 °FSunny.10 mph45%29.88 "Hg10 mi
4:53 PM79 °FSunny.12 mph45%29.89 "Hg10 mi
Weather by CustomWeather, © 2014

See weather overviewHow to use our weather pages